Janesville, WI

2:00 AM CDT on April 26, 2017 (GMT -0500)
Rock County

Weather History for KJVL - November, 2012

Change the Weather History Date:

Saturday, November 17, 2012

  Actual Average Record
Temperature  
Mean Temperature 42 °F -  
Max Temperature 55 °F 47 °F 73 °F (2016)
Min Temperature 28 °F 30 °F 8 °F (2014)
Degree Days  
Heating Degree Days 24    
Moisture  
Dew Point 30 °F    
Average Humidity 79    
Maximum Humidity 100    
Minimum Humidity 35    
Precipitation  
Precipitation 0.00 in - - ()
Sea Level Pressure  
Sea Level Pressure 30.46 in    
Wind  
Wind Speed 4 mph (SE)    
Max Wind Speed 14 mph    
Max Gust Speed -    
Visibility 4 miles    
Events Fog    
Averages and records for this station are not official NWS values.
T = Trace of Precipitation, MM = Missing Value Source: NWS Daily Summary

Daily Weather History Graph

Daily Weather History Graph

Search for Another Location

Airport or City:

Trip Planner

Search our weather history database for the weather conditions in past years. The results will help you decide how hot, cold, wet, or windy it might be!

Date:

Astronomy

Nov. 17, 2012 Rise Set
Actual Time 6:50 AM CST 4:31 PM CST
Civil Twilight 6:20 AM CST 5:01 PM CST
Nautical Twilight 5:45 AM CST 5:36 PM CST
Astronomical Twilight 5:12 AM CST 6:09 PM CST
Moon 10:35 AM CST (11/17) 8:41 PM CST (11/17)
Length of Visible Light 10h 41m
Length of Day
9h 40m
Waxing Crescent, 20% of the Moon is Illuminated
Nov 17
Waxing Crescent
Nov 20
First Quarter
Nov 28
Full
Dec 6
Last Quarter
Dec 13
New

Hourly Weather History & Observations

Time (CST) Temp. Windchill Dew Point Humidity Pressure Visibility Wind Dir Wind Speed Gust Speed Precip Events Conditions
12:15 AM 37.4 °F 34.9 °F 35.6 °F 93% 30.47 in 0.2 mi SE 3.5 mph - N/A Fog Fog
12:35 AM 37.4 °F 33.8 °F 35.6 °F 93% 30.46 in 0.2 mi SE 4.6 mph - N/A Fog Fog
12:55 AM 35.6 °F 32.8 °F 33.8 °F 93% 30.47 in 0.2 mi ESE 3.5 mph - N/A Fog Fog
1:15 AM 35.6 °F 31.7 °F 33.8 °F 93% 30.47 in 0.2 mi ESE 4.6 mph - N/A Fog Fog
1:35 AM 35.6 °F 32.8 °F 33.8 °F 93% 30.47 in 0.2 mi ESE 3.5 mph - N/A Fog Fog
1:55 AM 33.8 °F - 32.0 °F 93% 30.47 in 0.2 mi Calm Calm - N/A Fog Fog
2:15 AM 32.0 °F - 32.0 °F 100% 30.47 in 0.2 mi Calm Calm - N/A Fog Fog
2:35 AM 32.0 °F - 32.0 °F 100% 30.47 in 0.2 mi Calm Calm - N/A Fog Fog
2:55 AM 32.0 °F 28.7 °F 30.2 °F 93% 30.47 in 0.2 mi ENE 3.5 mph - N/A Fog Light Freezing Fog
3:15 AM 32.0 °F - 30.2 °F 93% 30.48 in 0.5 mi Calm Calm - N/A Fog Fog
3:35 AM 32.0 °F - 30.2 °F 93% 30.48 in 1.0 mi Calm Calm - N/A   Mist
3:55 AM 32.0 °F - 30.2 °F 93% 30.48 in 0.5 mi Calm Calm - N/A Fog Light Freezing Fog
4:15 AM 30.2 °F - 28.4 °F 93% 30.48 in 0.2 mi Calm Calm - N/A Fog Light Freezing Fog
4:35 AM 30.2 °F - 28.4 °F 93% 30.48 in 0.2 mi Calm Calm - N/A Fog Light Freezing Fog
5:45 AM 30.2 °F - 28.4 °F 93% 30.49 in 1.5 mi Calm Calm - N/A   Clear
6:45 AM 28.4 °F - 26.6 °F 93% 30.49 in 6.0 mi Calm Calm - N/A   Clear
7:45 AM 30.2 °F 25.4 °F 28.4 °F 93% 30.50 in 6.0 mi SSE 4.6 mph - N/A   Clear
8:45 AM 35.6 °F 31.7 °F 33.8 °F 93% 30.51 in 6.0 mi SSE 4.6 mph - N/A   Clear
9:45 AM 44.6 °F 40.7 °F 32.0 °F 61% 30.50 in 6.0 mi SSW 6.9 mph - N/A   Haze
10:45 AM 48.2 °F - 30.2 °F 50% 30.50 in 6.0 mi South 9.2 mph - N/A   Haze
11:45 AM 51.8 °F - 28.4 °F 41% 30.48 in 6.0 mi South 13.8 mph - N/A   Haze
12:45 PM 53.6 °F - 26.6 °F 35% 30.45 in 6.0 mi South 12.7 mph - N/A   Haze
1:45 PM 55.4 °F - 28.4 °F 36% 30.44 in 6.0 mi South 11.5 mph - N/A   Haze
2:45 PM 53.6 °F - 28.4 °F 38% 30.43 in 6.0 mi South 9.2 mph - N/A   Haze
3:45 PM 51.8 °F - 30.2 °F 44% 30.44 in 6.0 mi SSE 6.9 mph - N/A   Haze
4:45 PM 46.4 °F 44.3 °F 32.0 °F 57% 30.43 in 10.0 mi SE 4.6 mph - N/A   Clear
6:45 PM 39.2 °F 35.9 °F 30.2 °F 70% 30.42 in 7.0 mi ESE 4.6 mph - N/A   Clear
7:45 PM 37.4 °F 33.8 °F 30.2 °F 75% 30.43 in 7.0 mi ESE 4.6 mph - N/A   Clear
8:15 PM 33.8 °F 28.6 °F 28.4 °F 81% 30.43 in 7.0 mi SE 5.8 mph - N/A   Clear
8:35 PM 33.8 °F 29.6 °F 30.2 °F 87% 30.43 in 5.0 mi SE 4.6 mph - N/A   Haze
8:45 PM 35.6 °F 31.7 °F 28.4 °F 75% 30.43 in 7.0 mi SE 4.6 mph - N/A   Clear
8:55 PM 35.6 °F 32.8 °F 30.2 °F 81% 30.43 in 7.0 mi SE 3.5 mph - N/A   Clear
9:15 PM 35.6 °F 31.7 °F 30.2 °F 81% 30.43 in 7.0 mi SSE 4.6 mph - N/A   Clear
9:35 PM 37.4 °F 32.1 °F 30.2 °F 75% 30.42 in 7.0 mi SSE 6.9 mph - N/A   Clear
9:55 PM 39.2 °F 35.0 °F 30.2 °F 70% 30.43 in 7.0 mi SSE 5.8 mph - N/A   Clear
10:15 PM 37.4 °F 32.8 °F 30.2 °F 75% 30.43 in 7.0 mi SE 5.8 mph - N/A   Clear
10:35 PM 35.6 °F - 30.2 °F 81% 30.43 in 7.0 mi Calm Calm - N/A   Clear
10:55 PM 33.8 °F 30.8 °F 28.4 °F 81% 30.43 in 7.0 mi East 3.5 mph - N/A   Clear
11:15 PM 33.8 °F 30.8 °F 30.2 °F 87% 30.43 in 7.0 mi ESE 3.5 mph - N/A   Clear
11:35 PM 35.6 °F 31.7 °F 30.2 °F 81% 30.42 in 7.0 mi SE 4.6 mph - N/A   Clear
11:55 PM 33.8 °F 28.6 °F 30.2 °F 87% 30.42 in 7.0 mi SE 5.8 mph - N/A   Clear